This is the latest recevied weather packets stored in our database for station/object N5CSU. If no packets are shown the sender has not sent any weather packets the latest 10 day(s).
| Time | Temp. | Humidity | Pressure | Rain* | Wind** | Luminosity | Snow |
|---|---|---|---|---|---|---|---|
| 1777656727 | 17.22° C | 62% | 1016.9 hPa | 0 mm | - | 28 W/m² | - |
| 1777656423 | 17.22° C | 62% | 1017.1 hPa | 0 mm | - | 42 W/m² | - |
| 1777656118 | 16.67° C | 62% | 1017.2 hPa | 0 mm | - | 62 W/m² | - |
| 1777655814 | 16.67° C | 67% | 1017.4 hPa | 0 mm | - | 39 W/m² | - |
| 1777655511 | 16.11° C | 65% | 1017.4 hPa | 0 mm | - | 40 W/m² | - |
| 1777655208 | 16.11° C | 65% | 1017.5 hPa | 0 mm | - | 43 W/m² | - |
| 1777654905 | 16.11° C | 64% | 1017.7 hPa | 0 mm | - | 36 W/m² | - |
| 1777654603 | 16.11° C | 65% | 1017.5 hPa | 0 mm | - | 39 W/m² | - |
| 1777654299 | 15.56° C | 66% | 1017.4 hPa | 0 mm | - | 38 W/m² | - |
| 1777653998 | 15.56° C | 67% | 1017.4 hPa | 0 mm | - | 30 W/m² | - |
| 1777653694 | 15.56° C | 66% | 1017.5 hPa | 0 mm | - | 20 W/m² | - |
| 1777653391 | 15.56° C | 68% | 1017.6 hPa | 0 mm | - | 15 W/m² | - |
| 1777653088 | 15.56° C | 68% | 1017.4 hPa | 0 mm | - | 15 W/m² | - |
| 1777652784 | 15.56° C | 71% | 1017.7 hPa | 0 mm | - | 20 W/m² | - |
| 1777652480 | 15.56° C | 72% | 1017.8 hPa | 0 mm | - | 20 W/m² | - |
| 1777652178 | 15° C | 68% | 1017.6 hPa | 0 mm | - | 17 W/m² | - |
| 1777651869 | 15° C | 69% | 1017.8 hPa | 0 mm | - | 17 W/m² | - |
| 1777651566 | 15° C | 67% | 1017.6 hPa | 0 mm | - | 15 W/m² | - |
| 1777651263 | 15° C | 68% | 1017.5 hPa | 0 mm | - | 15 W/m² | - |
| 1777650959 | 15° C | 65% | 1017.8 hPa | 0 mm | - | 22 W/m² | - |
| 1777650656 | 15° C | 69% | 1017.6 hPa | 0 mm | - | 15 W/m² | - |
| 1777650354 | 15° C | 69% | 1017.5 hPa | 0 mm | - | 14 W/m² | - |
| 1777650050 | 14.44° C | 74% | 1017.8 hPa | 0 mm | - | 13 W/m² | - |
| 1777649748 | 14.44° C | 75% | 1018.1 hPa | 0 mm | - | 10 W/m² | - |
| 1777649444 | 14.44° C | 74% | 1018.1 hPa | 0 mm | - | 7 W/m² | - |
* Rain latest hour (hover to see other rain measurements)
** Current wind speed in m/s (hover to see current wind gust speed)